Overview Statistics Trail Chart Weather Telemetry Raw packets
 

This is the latest recevied weather packets stored in our database for station/object 4S6DRJ-13. If no packets are shown the sender has not sent any weather packets the latest 10 day(s).

<< 191 192 193 194 195 196 197 >>
Time Temp. Humidity Pressure Rain* Wind** Luminosity Snow
1788180926 28.89° C 80% 1007.9 hPa 0 mm 1.34 m/s, 227° 1 W/m² -
1788180857 28.89° C 80% 1007.9 hPa 0 mm 1.79 m/s, 307° 1 W/m² -
1788180796 28.89° C 80% 1008.1 hPa 0 mm 1.79 m/s, 191° 2 W/m² -
1788180735 28.89° C 80% 1008 hPa 0 mm 0.45 m/s, 227° 2 W/m² -
1788180674 28.89° C 80% 1007.9 hPa 0 mm 1.34 m/s, 227° 3 W/m² -
1788180613 28.89° C 80% 1007.9 hPa 0 mm 1.34 m/s, 215° 3 W/m² -
1788180552 28.89° C 80% 1007.7 hPa 0 mm 0.89 m/s, 250° 4 W/m² -
1788180491 28.89° C 80% 1007.9 hPa 0 mm 0.89 m/s, 241° 4 W/m² -
1788180429 28.89° C 80% 1007.8 hPa 0 mm 0.45 m/s, 229° 4 W/m² -
1788180368 28.89° C 80% 1007.8 hPa 0 mm 1.34 m/s, 225° 5 W/m² -
1788180308 28.89° C 79% 1007.8 hPa 0 mm 0.89 m/s, 280° 6 W/m² -
1788180247 28.89° C 79% 1007.8 hPa 0 mm 0.89 m/s, 191° 7 W/m² -
1788180185 28.89° C 79% 1007.9 hPa 0 mm 1.34 m/s, 136° 7 W/m² -
1788180125 28.89° C 79% 1007.7 hPa 0 mm 0.89 m/s, 233° 8 W/m² -
1788180064 28.89° C 79% 1007.8 hPa 0 mm 1.34 m/s, 239° 9 W/m² -
1788180003 28.89° C 79% 1007.6 hPa 0 mm 0.89 m/s, 234° 10 W/m² -
1788179942 28.89° C 79% 1007.6 hPa 0 mm 1.34 m/s, 256° 12 W/m² -
1788179880 28.89° C 79% 1007.5 hPa 0 mm 0.45 m/s, 324° 14 W/m² -
1788179820 28.89° C 80% 1007.6 hPa 0 mm 1.34 m/s, 291° 15 W/m² -
1788179759 28.89° C 79% 1007.8 hPa 0 mm 1.79 m/s, 231° 17 W/m² -
1788179698 28.89° C 80% 1007.5 hPa 0 mm 1.34 m/s, 335° 20 W/m² -
1788179638 28.89° C 80% 1007.4 hPa 0 mm 0.89 m/s, 231° 25 W/m² -
1788179576 28.89° C 80% 1007.6 hPa 0 mm 0.45 m/s, 226° 32 W/m² -
1788179515 28.89° C 79% 1007.5 hPa 0 mm 0.45 m/s, 229° 35 W/m² -
1788179454 28.89° C 79% 1007.5 hPa 0 mm 1.34 m/s, 230° 30 W/m² -

* Rain latest hour (hover to see other rain measurements)
** Current wind speed in m/s (hover to see current wind gust speed)